EW3751 Weather Reports


time (UTC)temp
C
wind
direction
speed
KPH
gust
KPH
rain 1hr
cm
rain 24hr
cm
rain mn
cm
humidity
%
barometer
mb
20191018092206 15 183 11.3 24.1 0.00 3.38 3.38 81 1007.5
20191018091705 15 135 20.9 24.1 0.00 3.38 3.38 82 1007.5
20191018091205 15 153 11.3 24.1 0.00 3.38 3.38 82 1007.5
20191018090705 15 163 12.9 20.9 0.00 3.38 3.38 83 1007.5
20191018090205 15 135 1.6 20.9 0.00 3.38 3.38 84 1007.6
20191018085705 15 163 12.9 20.9 0.00 3.38 3.38 85 1007.5
20191018085204 14 165 8.0 20.9 0.00 3.38 3.38 86 1007.6
20191018084204 14 153 4.8 20.9 0.00 3.38 3.38 87 1007.8
20191018083705 14 175 16.1 20.9 0.00 3.38 3.38 87 1007.7
20191018083206 14 193 6.4 20.9 0.00 3.38 3.38 89 1007.7
20191018082704 14 153 8.0 17.7 0.00 3.38 3.38 90 1007.7
20191018082205 13 175 8.0 16.1 0.00 3.38 3.38 91 1007.7
20191018081705 13 183 9.7 11.3 0.00 3.38 3.38 93 1007.8
20191018081204 13 143 8.0 11.3 0.00 3.38 3.38 93 1007.8
20191018080204 12 183 4.8 11.3 0.00 3.38 3.38 95 1007.8
20191018075704 12 158 4.8 11.3 0.00 3.38 3.38 95 1007.9
20191018074205 12 195 3.2 11.3 0.00 3.38 3.38 95 1008.3
20191018073705 12 143 3.2 11.3 0.00 3.38 3.38 95 1008.4
20191018073204 12 158 6.4 11.3 0.00 3.38 3.38 95 1008.6
20191018072705 12 153 4.8 11.3 0.00 3.38 3.38 95 1008.6
20191018072204 12 115 3.2 11.3 0.00 3.38 3.38 95 1008.6
20191018071704 12 145 4.8 9.7 0.00 3.38 3.38 95 1008.7
20191018071205 12 173 6.4 8.0 0.00 3.38 3.38 96 1008.8
20191018070705 12 143 3.2 8.0 0.00 3.38 3.38 96 1008.9
20191018070210 12 143 4.8 8.0 0.00 3.38 3.38 96 1008.9
20191018065705 11 163 3.2 8.0 0.00 3.38 3.38 96 1009.0
20191018064704 11 203 3.2 12.9 0.00 3.38 3.38 96 1008.9
20191018064205 11 193 1.6 12.9 0.00 3.38 3.38 96 1008.9
20191018063705 11 215 1.6 12.9 0.00 3.38 3.38 96 1008.8
20191018063207 12 173 6.4 12.9 0.00 3.38 3.38 96 1008.9
20191018062707 12 175 3.2 12.9 0.00 3.38 3.38 96 1008.8
20191018062204 11 205 3.2 12.9 0.00 3.38 3.38 96 1008.9
20191018061704 11 175 6.4 12.9 0.00 3.38 3.38 96 1008.8
20191018061205 11 165 9.7 9.7 0.00 3.38 3.38 96 1008.8
20191018060205 11 165 8.0 4.8 0.00 3.38 3.38 96 1008.9
20191018055705 11 165 1.6 4.8 0.00 3.38 3.38 96 1008.8
20191018055204 11 195 3.2 6.4 0.00 3.38 3.38 96 1008.9
20191018054705 11 205 3.2 9.7 0.00 3.38 3.38 96 1008.8
20191018054205 11 183 1.6 9.7 0.00 3.38 3.38 96 1008.9
20191018053704 11 185 1.6 9.7 0.00 3.38 3.38 96 1009.0
20191018052706 11 175 3.2 9.7 0.00 3.38 3.38 96 1009.0
20191018052205 11 163 1.6 9.7 0.00 3.38 3.38 96 1008.9
20191018051716 12 193 3.2 9.7 0.00 3.38 3.38 96 1008.9
20191018051204 12 158 8.0 9.7 0.00 3.38 3.38 96 1008.9
20191018050704 12 173 3.2 9.7 0.00 3.38 3.38 96 1008.8
20191018050205 12 158 3.2 9.7 0.00 3.38 3.38 96 1008.9
20191018045727 12 213 4.8 8.0 0.00 3.38 3.38 96 1008.9
20191018045205 11 195 3.2 6.4 0.00 3.38 3.38 96 1008.9
20191018044704 11 175 4.8 6.4 0.00 3.38 3.38 96 1009.0
20191018044212 11 193 3.2 6.4 0.00 3.38 3.38 96 1009.0
20191018043704 11 183 1.6 6.4 0.00 3.38 3.38 96 1009.1
20191018042705 11 203 1.6 3.2 0.00 3.38 3.38 95 1009.1
20191018042208 11 203 0.0 3.2 0.00 3.38 3.38 95 1009.0
20191018041708 11 193 1.6 6.4 0.00 3.38 3.38 95 1009.0
20191018040707 12 203 1.6 6.4 0.00 3.38 3.38 96 1009.2
20191018040205 12 183 1.6 6.4 0.00 3.38 3.38 95 1009.1
20191018035705 12 173 1.6 4.8 0.00 3.38 3.38 95 1009.1
20191018035204 12 215 1.6 4.8 0.00 3.38 3.38 95 1009.1
20191018034705 12 183 1.6 4.8 0.00 3.38 3.38 95 1009.1
20191018034204 12 145 3.2 8.0 0.00 3.38 3.38 95 1009.1
20191018033704 12 165 3.2 8.0 0.00 3.38 3.38 95 1009.3
20191018033204 12 165 1.6 8.0 0.00 3.38 3.38 95 1009.4
20191018032716 12 205 0.0 4.8 0.00 3.38 3.38 96 1009.3
20191018032204 12 135 3.2 3.2 0.00 3.38 3.38 96 1009.4
20191018031704 12 173 1.6 6.4 0.00 3.38 3.38 96 1009.3
20191018031205 12 183 1.6 6.4 0.00 3.38 3.38 96 1009.3
20191018030711 12 158 3.2 6.4 0.00 3.38 3.38 96 1009.2
20191018030204 12 185 1.6 6.4 0.00 3.38 3.38 95 1009.4
20191018025705 12 163 3.2 6.4 0.00 3.38 3.38 95 1009.3
20191018025204 12 173 3.2 6.4 0.00 3.38 3.38 95 1009.3
20191018024725 12 195 1.6 6.4 0.00 3.38 3.38 95 1009.4
20191018024205 13 183 4.8 6.4 0.00 3.38 3.38 95 1009.5
20191018023213 13 183 4.8 6.4 0.00 3.38 3.38 96 1009.6
20191018020704 12 173 3.2 8.0 0.00 3.38 3.38 96 1009.5
20191018020204 12 173 4.8 8.0 0.00 3.38 3.38 96 1009.4
20191018015704 12 215 3.2 6.4 0.00 3.38 3.38 96 1009.5
20191018015205 12 175 3.2 6.4 0.00 3.38 3.38 96 1009.5
20191018014205 12 195 3.2 9.7 0.00 3.38 3.38 95 1009.4
20191018013705 12 185 3.2 9.7 0.00 3.38 3.38 95 1009.4
20191018013204 12 163 4.8 9.7 0.00 3.38 3.38 95 1009.5
20191018012705 12 193 1.6 9.7 0.00 3.38 3.38 95 1009.5
20191018012204 12 158 3.2 9.7 0.00 3.38 3.38 95 1009.4
20191018011708 13 165 6.4 8.0 0.00 3.38 3.38 95 1009.4
20191018011205 13 163 6.4 8.0 0.00 3.38 3.38 95 1009.5
20191018010704 13 205 3.2 8.0 0.00 3.38 3.38 95 1009.5
20191018010204 13 163 3.2 8.0 0.00 3.38 3.38 95 1009.7
20191018005705 13 163 3.2 8.0 0.00 3.38 3.38 95 1009.6
20191018005205 13 165 8.0 8.0 0.00 3.38 3.38 95 1009.6
20191018004705 13 133 3.2 6.4 0.00 3.38 3.38 95 1009.7
20191018004215 13 223 4.8 3.2 0.00 3.38 3.38 95 1009.8
20191018003706 13 185 3.2 1.6 0.00 3.38 3.38 95 1009.8
20191018003205 13 205 1.6 3.2 3.38 3.38 3.38 95 1009.8
20191018002704 13 183 0.0 3.2 3.38 3.38 3.38 95 1009.9
20191018002205 13 165 1.6 3.2 3.38 3.38 3.38 95 1009.9
20191018001705 13 175 1.6 4.8 3.38 3.38 3.38 95 1009.9
20191018001204 13 113 0.0 4.8 3.38 3.38 3.38 95 1010.0
20191018000706 13 113 0.0 4.8 3.38 3.38 3.38 95 1010.0
20191018000205 13 113 0.0 4.8 3.38 3.38 3.38 95 1010.0
20191017235709 13 123 1.6 3.2 3.38 3.38 3.38 95 1009.9
20191017235204 13 145 1.6 3.2 3.38 3.38 3.38 95 1010.0
20191017234704 13 133 1.6 6.4 3.38 3.38 3.38 95 1010.2
20191017234205 13 173 0.0 6.4 3.38 3.38 3.38 95 1010.1
20191017233705 13 153 1.6 6.4 3.38 3.38 3.38 95 1010.0
20191017233205 13 173 1.6 6.4 0.00 0.00 0.00 95 1010.1
20191017232204 13 165 3.2 6.4 0.00 0.00 0.00 95 1010.2
20191017231704 13 173 4.8 6.4 0.00 0.00 0.00 95 1010.1
20191017230704 13 165 3.2 6.4 0.00 0.00 0.00 94 1010.1
20191017230210 13 123 3.2 4.8 0.00 0.00 0.00 94 1010.1
20191017225705 13 175 1.6 4.8 0.00 0.00 0.00 94 1010.2
20191017224705 13 145 1.6 3.2 0.00 0.00 0.00 94 1010.3
20191017224205 13 153 1.6 3.2 0.00 0.00 0.00 94 1010.3
20191017223704 13 143 1.6 3.2 0.00 0.00 0.00 94 1010.2
20191017223232 13 153 1.6 3.2 0.00 0.00 0.00 94 1010.3
20191017222205 13 83 1.6 3.2 0.00 0.00 0.00 94 1010.3
20191017221705 13 45 1.6 3.2 0.00 0.00 0.00 94 1010.4
20191017220705 13 235 0.0 6.4 0.00 0.00 0.00 94 1010.6
20191017220206 13 215 0.0 6.4 0.00 0.00 0.00 94 1010.5
20191017215705 13 173 1.6 6.4 0.00 0.00 0.00 94 1010.6
20191017215205 13 175 1.6 6.4 0.00 0.00 0.00 94 1010.6
20191017214708 13 173 3.2 9.7 0.00 0.00 0.00 94 1010.6
20191017214205 13 175 1.6 9.7 0.00 0.00 0.00 94 1010.7
20191017213704 13 165 3.2 9.7 0.00 0.00 0.00 94 1010.8
20191017212705 13 163 4.8 9.7 0.00 0.00 0.00 94 1010.8
20191017212205 13 183 4.8 9.7 0.00 0.00 0.00 94 1010.7
20191017211705 13 165 6.4 9.7 0.00 0.00 0.00 94 1010.7
20191017211205 13 165 4.8 9.7 0.00 0.00 0.00 93 1010.7
20191017210705 13 173 3.2 9.7 0.00 0.00 0.00 93 1010.8
20191017210205 13 175 3.2 6.4 0.00 0.00 0.00 93 1010.9
20191017205704 13 165 1.6 6.4 0.00 0.00 0.00 93 1011.0
20191017205204 13 183 4.8 6.4 0.00 0.00 0.00 93 1011.1
20191017204704 13 183 1.6 6.4 0.00 0.00 0.00 93 1011.1
20191017204205 13 165 3.2 6.4 0.00 0.00 0.00 93 1011.1
20191017203707 13 173 4.8 6.4 0.00 0.00 0.00 92 1011.3
20191017203205 13 203 3.2 6.4 0.00 0.00 0.00 92 1011.3
20191017202705 13 173 3.2 6.4 0.00 0.00 0.00 92 1011.3
20191017201705 13 153 3.2 3.2 0.00 0.00 0.00 91 1011.4
20191017201205 13 185 3.2 4.8 0.00 0.00 0.00 90 1011.4
20191017200710 13 233 1.6 4.8 0.00 0.00 0.00 90 1011.4
20191017200205 13 215 1.6 4.8 0.00 0.00 0.00 89 1011.4
20191017195207 14 215 1.6 4.8 0.00 0.00 0.00 88 1011.3
20191017194705 14 163 3.2 8.0 0.00 0.00 0.00 87 1011.2
20191017193705 15 173 3.2 8.0 0.00 0.00 0.00 84 1011.0
20191017193204 15 173 1.6 8.0 0.00 0.00 0.00 83 1011.0
20191017192706 15 205 3.2 6.4 0.00 0.00 0.00 83 1011.0
20191017192205 15 193 4.8 6.4 0.00 0.00 0.00 82 1011.0
20191017191728 15 213 1.6 8.0 0.00 0.00 0.00 82 1011.0
20191017191205 15 175 3.2 8.0 0.00 0.00 0.00 82 1011.0
20191017190704 15 193 3.2 8.0 0.00 0.00 0.00 82 1010.9
20191017190205 15 163 3.2 8.0 0.00 0.00 0.00 82 1010.9
20191017185709 14 183 3.2 8.0 0.00 0.00 0.00 83 1011.0
20191017184705 14 203 3.2 6.4 0.00 0.00 0.00 84 1010.9
20191017184204 14 153 3.2 6.4 0.00 0.00 0.00 84 1010.9
20191017182705 14 175 3.2 6.4 0.00 0.00 0.00 84 1011.0
20191017182205 14 175 3.2 6.4 0.00 0.00 0.00 84 1011.1
20191017180705 14 165 4.8 6.4 0.00 0.00 0.00 84 1011.4
20191017180204 14 153 4.8 6.4 0.00 0.00 0.00 84 1011.3
20191017175705 14 165 3.2 4.8 0.00 0.00 0.00 85 1011.3
20191017175205 14 145 4.8 4.8 0.00 0.00 0.00 85 1011.3
20191017174706 14 233 1.6 6.4 0.00 0.00 0.00 85 1011.3
20191017173705 14 185 0.0 6.4 0.00 0.00 0.00 87 1011.3
20191017173205 14 263 1.6 6.4 0.00 0.00 0.00 88 1011.4
20191017172704 14 235 1.6 6.4 0.00 0.00 0.00 88 1011.3
20191017172204 14 175 4.8 4.8 0.00 0.00 0.00 88 1011.3
20191017171205 13 205 0.0 4.8 0.00 0.00 0.00 88 1011.3
20191017170704 13 213 1.6 4.8 0.00 0.00 0.00 88 1011.3
20191017170205 13 173 3.2 3.2 0.00 0.00 0.00 88 1011.2
20191017165705 13 158 1.6 3.2 0.00 0.00 0.00 88 1011.2
20191017165204 13 158 3.2 3.2 0.00 0.00 0.00 88 1011.4
20191017164704 13 165 1.6 3.2 0.00 0.00 0.00 87 1011.4
20191017164204 14 165 1.6 3.2 0.00 0.00 0.00 87 1011.3
20191017163204 14 195 1.6 3.2 0.00 0.00 0.00 87 1011.3
20191017162705 14 183 1.6 3.2 0.00 0.00 0.00 86 1011.1
20191017162205 14 143 1.6 3.2 0.00 0.00 0.00 86 1011.1
20191017161707 15 163 1.6 3.2 0.00 0.00 0.00 85 1011.2
20191017161205 15 193 3.2 3.2 0.00 0.00 0.00 85 1011.3
20191017160709 15 165 0.0 3.2 0.00 0.00 0.00 83 1011.2
20191017160204 15 133 1.6 3.2 0.00 0.00 0.00 82 1011.1
20191017155705 15 125 1.6 3.2 0.00 0.00 0.00 82 1011.2
20191017154705 16 63 1.6 9.7 0.00 0.00 0.00 80 1011.3
20191017154205 16 153 0.0 9.7 0.00 0.00 0.00 80 1011.2
20191017153705 16 153 1.6 9.7 0.00 0.00 0.00 79 1011.3
20191017153204 16 195 1.6 9.7 0.00 0.00 0.00 79 1011.3
20191017152704 16 173 3.2 9.7 0.00 0.00 0.00 78 1011.2
20191017151705 16 205 3.2 12.9 0.00 0.00 0.00 77 1011.3
20191017151206 17 215 3.2 12.9 0.00 0.00 0.00 76 1011.2
20191017150710 17 213 6.4 12.9 0.00 0.00 0.00 76 1011.2
20191017150205 17 215 6.4 12.9 0.00 0.00 0.00 76 1011.1
20191017145705 17 195 6.4 12.9 0.00 0.00 0.00 75 1011.1
20191017144706 17 263 6.4 14.5 0.00 0.00 0.00 76 1011.1
20191017144204 17 225 9.7 14.5 0.00 0.00 0.00 75 1011.2
20191017143705 17 235 11.3 14.5 0.00 0.00 0.00 76 1011.1
20191017142205 17 255 3.2 14.5 0.00 0.00 0.00 76 1011.3
20191017141707 17 193 3.2 17.7 0.00 0.00 0.00 75 1011.3
20191017141204 17 243 4.8 17.7 0.00 0.00 0.00 76 1011.4
20191017140705 17 195 3.2 17.7 0.00 0.00 0.00 76 1011.4
20191017140204 17 215 9.7 17.7 0.00 0.00 0.00 76 1011.4
20191017135205 17 233 6.4 17.7 0.00 0.00 0.00 76 1011.4
20191017133704 16 293 8.0 24.1 0.00 0.00 0.00 76 1011.2
20191017133231 16 245 17.7 24.1 0.00 0.00 0.00 76 1011.1
20191017132704 16 213 12.9 24.1 0.00 0.00 0.00 76 1011.1
20191017132209 17 175 11.3 22.5 0.00 0.00 0.00 75 1011.1
20191017131705 17 243 8.0 24.1 0.00 0.00 0.00 75 1011.1
20191017131205 17 285 8.0 24.1 0.00 0.00 0.00 76 1011.1
20191017130704 17 235 12.9 24.1 0.00 0.00 0.00 76 1011.0
20191017130205 17 253 4.8 24.1 0.00 0.00 0.00 76 1011.0
20191017125706 17 175 6.4 24.1 0.00 0.00 0.00 76 1010.9
20191017125205 17 255 16.1 24.1 0.00 0.00 0.00 75 1011.0
20191017124705 17 235 12.9 24.1 0.00 0.00 0.00 76 1011.0
20191017124204 17 185 4.8 24.1 0.00 0.00 0.00 76 1011.0
20191017123704 17 253 19.3 24.1 0.00 0.00 0.00 76 1010.9
20191017123204 17 255 17.7 24.1 0.00 0.00 0.00 75 1010.9
20191017122704 17 185 20.9 24.1 0.00 0.00 0.00 75 1010.9
20191017121705 17 253 4.8 25.7 0.00 0.00 0.00 76 1011.0
20191017121204 17 253 17.7 25.7 0.00 0.00 0.00 76 1010.9
20191017120708 17 185 12.9 25.7 0.00 0.00 0.00 76 1010.9
20191017120206 17 205 3.2 25.7 0.00 0.00 0.00 75 1011.0
20191017115704 17 215 9.7 25.7 0.00 0.00 0.00 75 1010.9
20191017115205 17 255 17.7 25.7 0.00 0.00 0.00 75 1010.9
20191017114704 17 275 9.7 29.0 0.00 0.00 0.00 76 1010.9
20191017113205 16 233 25.7 29.0 0.00 0.00 0.00 76 1010.8
20191017112705 16 253 9.7 29.0 0.00 0.00 0.00 77 1010.9
20191017112204 16 205 4.8 29.0 0.00 0.00 0.00 76 1010.9
20191017111704 16 175 8.0 29.0 0.00 0.00 0.00 77 1010.9
20191017111205 16 255 8.0 25.7 0.00 0.00 0.00 77 1011.0
20191017110704 16 185 14.5 25.7 0.00 0.00 0.00 77 1010.9
20191017110206 16 163 6.4 25.7 0.00 0.00 0.00 77 1011.0
20191017105704 16 185 6.4 25.7 0.00 0.00 0.00 76 1010.9
20191017105207 16 115 4.8 25.7 0.00 0.00 0.00 77 1010.9
20191017104706 16 245 9.7 25.7 0.00 0.00 0.00 76 1010.9
20191017104205 16 263 14.5 20.9 0.00 0.00 0.00 76 1010.9
20191017103704 16 225 16.1 20.9 0.00 0.00 0.00 76 1010.9
20191017103205 16 195 8.0 20.9 0.00 0.00 0.00 76 1010.9
20191017102705 16 183 4.8 20.9 0.00 0.00 0.00 77 1011.0
20191017102205 16 233 8.0 20.9 0.00 0.00 0.00 77 1010.9
20191017101204 16 295 6.4 20.9 0.00 0.00 0.00 77 1010.9
20191017100214 16 263 16.1 19.3 0.00 0.00 0.00 76 1010.8
20191017095705 16 235 9.7 17.7 0.00 0.00 0.00 77 1010.9
20191017095207 16 245 9.7 17.7 0.00 0.00 0.00 77 1010.8
20191017094210 16 223 11.3 17.7 0.00 0.00 0.00 77 1010.8
20191017093705 16 213 11.3 17.7 0.00 0.00 0.00 77 1010.8
20191017092705 16 215 4.8 14.5 0.00 0.00 0.00 77 1010.9